Ozark, AL

11:48 PM CDT on July 25, 2017 (GMT -0500)
Cairns Army Air Field

Weather History for KOZR - December, 2012

Change the Weather History Date:

Friday, December 14, 2012

  Actual Average Record
Temperature  
Mean Temperature 52 °F -  
Max Temperature 63 °F 59 °F 75 °F (2011)
Min Temperature 41 °F 38 °F 20 °F (2010)
Degree Days  
Heating Degree Days 13    
Growing Degree Days 2 (Base 50)    
Moisture  
Dew Point 43 °F    
Average Humidity 88    
Maximum Humidity 100    
Minimum Humidity 53    
Precipitation  
Precipitation 0.00 in - - ()
Sea Level Pressure  
Sea Level Pressure 30.29 in    
Wind  
Wind Speed 6 mph (ENE)    
Max Wind Speed 14 mph    
Max Gust Speed 20 mph    
Visibility 9 miles    
Events      
Averages and records for this station are not official NWS values.
T = Trace of Precipitation, MM = Missing Value Source: NWS Daily Summary

Daily Weather History Graph

Daily Weather History Graph

Search for Another Location

Airport or City:

Trip Planner

Search our weather history database for the weather conditions in past years. The results will help you decide how hot, cold, wet, or windy it might be!

Date:

Astronomy

Dec. 14, 2012 Rise Set
Actual Time 6:33 AM CST 4:41 PM CST
Civil Twilight 6:07 AM CST 5:08 PM CST
Nautical Twilight 5:36 AM CST 5:38 PM CST
Astronomical Twilight 5:07 AM CST 6:08 PM CST
Moon 7:41 AM CST (12/14) 6:29 PM CST (12/14)
Length of Visible Light 11h 01m
Length of Day
10h 07m
Waxing Crescent, 3% of the Moon is Illuminated
Dec 14
Waxing Crescent
Dec 19
First Quarter
Dec 28
Full
Jan 4
Last Quarter
Jan 11
New

Hourly Weather History & Observations

Time (CST) Temp. Windchill Dew Point Humidity Pressure Visibility Wind Dir Wind Speed Gust Speed Precip Events Conditions
12:19 AM 41.0 °F 38.0 °F 41.0 °F 100% 30.30 in 10.0 mi ENE 4.6 mph - N/A   Mostly Cloudy
12:41 AM 42.8 °F 40.1 °F 41.0 °F 93% 30.30 in 10.0 mi ENE 4.6 mph - N/A   Overcast
12:55 AM 43.2 °F 40.5 °F 41.5 °F 94% 30.30 in 10.0 mi ENE 4.6 mph - N/A   Overcast
1:49 AM 42.8 °F 39.3 °F 41.0 °F 93% 30.30 in 10.0 mi NNE 5.8 mph - N/A   Overcast
1:55 AM 43.5 °F 40.1 °F 41.9 °F 94% 30.30 in 10.0 mi NNE 5.8 mph - N/A   Overcast
2:10 AM 42.8 °F 39.3 °F 41.0 °F 93% 30.30 in 10.0 mi NE 5.8 mph - N/A   Overcast
2:23 AM 42.8 °F 39.3 °F 41.0 °F 93% 30.30 in 10.0 mi NNE 5.8 mph - N/A   Overcast
2:50 AM 42.8 °F 38.6 °F 41.0 °F 93% 30.29 in 10.0 mi NE 6.9 mph - N/A   Overcast
2:52 AM 42.8 °F 38.0 °F 41.0 °F 93% 30.29 in 10.0 mi NE 8.1 mph - N/A   Overcast
2:55 AM 43.0 °F 39.5 °F 41.7 °F 95% 30.29 in 10.0 mi NE 5.8 mph - N/A   Overcast
2:58 AM 42.8 °F 38.6 °F 41.0 °F 93% 30.29 in 10.0 mi NE 6.9 mph - N/A   Overcast
3:00 AM 42.8 °F 39.3 °F 41.0 °F 93% 30.29 in 10.0 mi NE 5.8 mph - N/A   Overcast
3:02 AM 42.8 °F 39.3 °F 41.0 °F 93% 30.29 in 10.0 mi NE 5.8 mph - N/A   Overcast
3:03 AM 42.8 °F 39.3 °F 41.0 °F 93% 30.29 in 10.0 mi NE 5.8 mph - N/A   Overcast
3:10 AM 42.8 °F 39.3 °F 41.0 °F 93% 30.29 in 10.0 mi NE 5.8 mph - N/A   Overcast
3:55 AM 43.2 °F 39.0 °F 41.5 °F 94% 30.30 in 10.0 mi NE 6.9 mph - N/A   Overcast
3:56 AM 42.8 °F 39.3 °F 41.0 °F 93% 30.30 in 10.0 mi NE 5.8 mph - N/A   Overcast
4:12 AM 42.8 °F 38.6 °F 41.0 °F 93% 30.30 in 10.0 mi NE 6.9 mph - N/A   Overcast
4:55 AM 43.2 °F 39.7 °F 42.1 °F 96% 30.31 in 6.0 mi NNE 5.8 mph - N/A   Overcast
5:28 AM 42.8 °F 38.6 °F 42.8 °F 100% 30.32 in 6.0 mi NE 6.9 mph - N/A   Overcast
5:43 AM 42.8 °F 37.5 °F 42.8 °F 100% 30.32 in 6.0 mi NE 9.2 mph - N/A   Overcast
5:55 AM 43.5 °F 39.4 °F 42.4 °F 96% 30.32 in 5.0 mi NE 6.9 mph - N/A   Overcast
6:09 AM 42.8 °F 38.6 °F 42.8 °F 100% 30.32 in 6.0 mi NE 6.9 mph - N/A   Overcast
6:11 AM 42.8 °F 38.0 °F 42.8 °F 100% 30.32 in 6.0 mi NE 8.1 mph - N/A   Overcast
6:16 AM 42.8 °F 37.5 °F 42.8 °F 100% 30.32 in 6.0 mi NE 9.2 mph - N/A   Overcast
6:17 AM 42.8 °F 37.5 °F 42.8 °F 100% 30.32 in 6.0 mi NE 9.2 mph - N/A   Overcast
6:55 AM 43.3 °F 39.9 °F 42.6 °F 97% 30.32 in 3.0 mi ENE 5.8 mph - N/A   Overcast
7:25 AM 44.6 °F 40.7 °F 42.8 °F 93% 30.33 in 7.0 mi ENE 6.9 mph - N/A   Overcast
7:44 AM 44.6 °F 39.2 °F 42.8 °F 93% 30.33 in 9.0 mi ENE 10.4 mph - N/A   Overcast
7:55 AM 45.0 °F 38.5 °F 43.9 °F 96% 30.33 in 10.0 mi ENE 13.8 mph 18.4 mph N/A   Overcast
7:57 AM 44.6 °F 38.1 °F 44.6 °F 100% 30.33 in 10.0 mi ENE 13.8 mph 18.4 mph N/A   Overcast
7:58 AM 44.6 °F 38.8 °F 44.6 °F 100% 30.33 in 10.0 mi ENE 11.5 mph 18.4 mph N/A   Overcast
7:59 AM 44.6 °F 38.8 °F 44.6 °F 100% 30.33 in 10.0 mi ENE 11.5 mph 18.4 mph N/A   Overcast
8:11 AM 46.4 °F 41.5 °F 42.8 °F 87% 30.33 in 10.0 mi East 10.4 mph 17.3 mph N/A   Overcast
8:37 AM 48.2 °F - 44.6 °F 87% 30.35 in 10.0 mi East 9.2 mph - N/A   Overcast
8:55 AM 49.1 °F - 44.2 °F 83% 30.35 in 10.0 mi East 11.5 mph - N/A   Overcast
9:28 AM 51.8 °F - 44.6 °F 76% 30.34 in 10.0 mi ENE 8.1 mph 17.3 mph N/A   Overcast
9:48 AM 53.6 °F - 42.8 °F 67% 30.33 in 10.0 mi East 10.4 mph 19.6 mph N/A   Scattered Clouds
9:55 AM 52.9 °F - 43.7 °F 71% 30.33 in 10.0 mi East 12.7 mph - N/A   Partly Cloudy
10:55 AM 56.1 °F - 43.5 °F 63% 30.30 in 10.0 mi NE 11.5 mph - N/A   Clear
11:55 AM 59.0 °F - 44.4 °F 58% 30.27 in 10.0 mi East 11.5 mph - N/A   Clear
12:55 PM 61.2 °F - 45.0 °F 55% 30.24 in 10.0 mi Calm Calm - N/A   Clear
1:55 PM 62.8 °F - 45.7 °F 54% 30.21 in 10.0 mi ENE 4.6 mph - N/A   Clear
2:55 PM 63.3 °F - 46.0 °F 53% 30.19 in 10.0 mi Calm Calm - N/A   Clear
3:55 PM 62.1 °F - 46.0 °F 56% 30.20 in 10.0 mi ENE 3.5 mph - N/A   Clear
4:55 PM 57.0 °F - 47.5 °F 70% 30.22 in 10.0 mi ENE 3.5 mph - N/A   Clear
5:55 PM 53.4 °F - 45.5 °F 75% 30.21 in 10.0 mi Calm Calm - N/A   Clear
6:55 PM 50.5 °F - 46.2 °F 85% 30.22 in 10.0 mi ENE 5.8 mph - N/A   Clear
7:55 PM 48.6 °F - 45.3 °F 89% 30.19 in 10.0 mi East 5.8 mph - N/A   Clear
8:55 PM 48.7 °F - 45.7 °F 89% 30.19 in 10.0 mi South 3.5 mph - N/A   Clear
9:55 PM 48.7 °F - 46.6 °F 92% 30.19 in 10.0 mi Calm Calm - N/A   Overcast
10:55 PM 47.5 °F - 46.0 °F 95% 30.17 in 10.0 mi East 3.5 mph - N/A   Overcast
11:55 PM 47.3 °F - 46.0 °F 95% 30.16 in 10.0 mi Calm Calm - N/A   Overcast